SCP
0 0 0 0 0 0 0 0 0 0 0 0 0 0 0 0 0 0 0 0 0 0
0 0 0 0 0 0 0 0 0 0 0 0 0 0 0 0 0 0 0 0 0 0
0 0 0 0 0 0 0 0 0 0 0 0 0 0 0 0 0 0 0 0 0 0
0 0 0 0 0 0 0 0 0 0 0 0 0 0 0 0 0 0 0 0 0 0
0 0 0 0 0 0 0 0 0 0 0 0 0 0 0 0 0 0 0 0 0 0
0 0 0 0 0 0 0 0 0 0 0 0 0 0 0 0 0 0 0 0 0 0
0 0 0 0 0 0 0 0 0 0 0 0 0 0 0 0 0 0 0 0 0 0
0 0 0 0 0 0 0 0 0 0 0 0 0 0 0 0 0 0 0 0 0 0
0 0 0 0 0 0 0 0 0 0 0 0 0 0 0 0 0 0 0 0 0 0
-0 0 0 0 0 0 0 0 0 0 0 0 0 0 0 0 0 0 0 0 0 0
-0 0 0 0 0 0 0 0 0 0 0 0 0 0 0 0 0 0 0 0 0 0
-0 0 0 0 0 0 0 0 0 0 0 -0 0 0 0 0 0 0 0 0 0 0
0 -0 0 0 0 0 0 0 0 0 0 0 0 0 0 0 0 0 0 0 0 0
-0 0 0 0 0 0 0 0 0 0 0 0 0 0 0 0 0 0 0 0 0 0
Wind_Speed_500mb
85 88 90 86 90 88 79 74 76 79 75 78 62 69 81 87 90 94 101 103 104 101
82 85 91 90 83 80 89 83 80 80 74 72 70 67 83 90 92 90 101 98 102 97
87 87 87 84 89 85 85 86 83 85 82 75 71 71 81 96 90 96 96 86 96 93
86 84 78 83 92 87 84 85 84 89 91 70 64 70 84 92 95 103 92 92 88 96
82 76 85 93 93 90 92 84 89 86 95 93 80 63 85 98 93 102 103 90 97 96
82 80 85 90 88 87 89 92 84 88 90 100 95 83 86 103 98 103 103 89 97 104
72 78 83 84 86 84 83 83 88 80 90 82 82 83 89 100 100 101 102 96 95 90
62 68 73 78 79 79 77 83 96 77 89 81 81 84 97 109 97 105 106 96 99 92
41 57 66 70 70 70 76 77 102 79 77 92 83 88 98 105 108 107 102 100 94 90
15 31 43 48 53 65 75 79 102 76 72 87 90 93 105 103 112 101 97 94 93 89
49 18 25 40 49 58 56 72 94 72 71 84 89 85 102 95 107 96 100 100 90 89
83 63 47 42 38 34 37 57 58 66 68 71 83 115 106 110 107 98 99 97 91 86
95 88 71 53 41 44 50 55 41 50 67 77 100 102 104 99 95 89 82 80 74 65
102 101 92 87 85 83 77 66 65 55 68 89 94 87 77 78 78 78 75 72 67 58
Wind_Direction_500mb
271 267 263 260 257 251 251 246 250 240 242 243 242 234 231 227 224 220 217 220 219 224
273 267 263 260 254 251 250 246 246 238 238 243 236 235 228 223 222 223 224 221 219 219
274 269 263 258 253 249 248 245 238 239 234 241 237 232 225 222 224 222 222 220 218 219
275 269 259 254 250 245 241 240 240 236 230 232 238 231 221 219 218 220 219 215 216 212
273 265 259 254 249 244 234 235 236 228 227 227 227 229 222 211 218 220 212 213 219 217
275 266 257 252 246 241 237 230 231 221 225 228 226 232 220 220 218 221 218 218 213 214
275 264 254 249 243 237 230 225 219 222 224 226 226 226 222 220 214 220 217 216 215 211
290 264 250 242 235 229 223 221 210 218 221 222 224 224 218 217 218 217 218 212 208 211
289 255 240 231 226 221 217 219 205 213 218 219 222 225 218 215 217 217 215 209 208 211
322 244 224 214 214 211 210 207 205 213 218 219 221 221 214 214 219 216 213 205 206 203
49 167 183 197 205 207 203 210 206 214 221 219 223 219 215 215 215 215 209 203 209 206
42 81 130 166 182 178 188 198 211 216 220 217 216 213 218 209 206 202 199 198 204 203
47 68 86 111 132 161 179 186 201 190 198 204 204 200 208 202 194 188 185 189 190 195
53 57 72 91 98 105 124 128 129 160 160 171 176 183 176 176 171 171 169 178 175 177
Wind_Speed_850mb
85 88 90 86 90 88 79 74 76 79 75 78 62 69 81 87 90 94 101 103 104 101
82 85 91 90 83 80 89 83 80 80 74 72 70 67 83 90 92 90 101 98 102 97
87 87 87 84 89 85 85 86 83 85 82 75 71 71 81 96 90 96 96 86 96 93
86 84 78 83 92 87 84 85 84 89 91 70 64 70 84 92 95 103 92 92 88 96
82 76 85 93 93 90 92 84 89 86 95 93 80 63 85 98 93 102 103 90 97 96
82 80 85 90 88 87 89 92 84 88 90 100 95 83 86 103 98 103 103 89 97 104
72 78 83 84 86 84 83 83 88 80 90 82 82 83 89 100 100 101 102 96 95 90
62 68 73 78 79 79 77 83 96 77 89 81 81 84 97 109 97 105 106 96 99 92
41 57 66 70 70 70 76 77 102 79 77 92 83 88 98 105 108 107 102 100 94 90
15 31 43 48 53 65 75 79 102 76 72 87 90 93 105 103 112 101 97 94 93 89
49 18 25 40 49 58 56 72 94 72 71 84 89 85 102 95 107 96 100 100 90 89
83 63 47 42 38 34 37 57 58 66 68 71 83 115 106 110 107 98 99 97 91 86
95 88 71 53 41 44 50 55 41 50 67 77 100 102 104 99 95 89 82 80 74 65
102 101 92 87 85 83 77 66 65 55 68 89 94 87 77 78 78 78 75 72 67 58
Wind_Direction_850mb
271 267 263 260 257 251 251 246 250 240 242 243 242 234 231 227 224 220 217 220 219 224
273 267 263 260 254 251 250 246 246 238 238 243 236 235 228 223 222 223 224 221 219 219
274 269 263 258 253 249 248 245 238 239 234 241 237 232 225 222 224 222 222 220 218 219
275 269 259 254 250 245 241 240 240 236 230 232 238 231 221 219 218 220 219 215 216 212
273 265 259 254 249 244 234 235 236 228 227 227 227 229 222 211 218 220 212 213 219 217
275 266 257 252 246 241 237 230 231 221 225 228 226 232 220 220 218 221 218 218 213 214
275 264 254 249 243 237 230 225 219 222 224 226 226 226 222 220 214 220 217 216 215 211
290 264 250 242 235 229 223 221 210 218 221 222 224 224 218 217 218 217 218 212 208 211
289 255 240 231 226 221 217 219 205 213 218 219 222 225 218 215 217 217 215 209 208 211
322 244 224 214 214 211 210 207 205 213 218 219 221 221 214 214 219 216 213 205 206 203
49 167 183 197 205 207 203 210 206 214 221 219 223 219 215 215 215 215 209 203 209 206
42 81 130 166 182 178 188 198 211 216 220 217 216 213 218 209 206 202 199 198 204 203
47 68 86 111 132 161 179 186 201 190 198 204 204 200 208 202 194 188 185 189 190 195
53 57 72 91 98 105 124 128 129 160 160 171 176 183 176 176 171 171 169 178 175 177